Location: Unspecified
(0.0000°N, 0.0000°E)
Time: 06:44:25
(UTC+00:00)

Vanguard 2 - Pass Details

Date: 17 September 2019
Orbit: 554 x 2937 km, 32.9° (Epoch: 14 October)

Event Time Altitude Azimuth Distance (km) Brightness Sun altitude
Rises 10:47:06 0° 336° (NNW) 2,716 10.3 73.0°
Reaches altitude 10° 10:50:13 10° 3° (N) 1,828 9.7 73.7°
Maximum altitude 10:52:23 14° 37° (NE) 1,645 9.6 74.3°
Drops below altitude 10° 10:54:43 10° 69° (ENE) 2,004 10.1 74.9°
Sets 10:58:26 0° 95° (E) 3,197 10.9 75.8°
